FW3598 Weather Reports


Display with metric or nautical units.
time (UTC)temp
F
wind
direction
speed
MPH
gust
MPH
rain 1hr
in
rain 24hr
in
rain mn
in
humidity
%
barometer
mb
20220704221121 61 94 3.0 11.0 0.00 0.43 0.17 81 1014.4
20220704220121 61 92 2.0 9.0 0.00 0.43 0.17 81 1014.5
20220704215121 62 104 2.0 10.0 0.00 0.43 0.17 81 1014.5
20220704214121 62 109 2.0 10.0 0.00 0.43 0.17 85 1014.5
20220704213122 61 67 1.0 7.0 0.00 0.43 0.17 86 1014.5
20220704212121 61 50 1.0 7.0 0.00 0.43 0.17 87 1014.5
20220704211121 61 71 2.0 10.0 0.00 0.43 0.17 88 1014.5
20220704210121 61 66 1.0 6.0 0.00 0.43 0.17 89 1014.6
20220704205121 60 93 2.0 10.0 0.00 0.43 0.17 90 1014.5
20220704204121 60 81 1.0 6.0 0.00 0.43 0.17 90 1014.5
20220704203121 60 101 3.0 9.0 0.00 0.43 0.17 91 1014.5
20220704202122 59 85 4.0 10.0 0.00 0.43 0.17 91 1014.5
20220704201121 58 85 3.0 8.0 0.00 0.43 0.17 93 1014.2
20220704200121 59 127 4.0 10.0 0.00 0.43 0.17 92 1014.2
20220704195121 58 102 5.0 13.0 0.00 0.43 0.17 92 1014.2
20220704194122 58 104 4.0 10.0 0.00 0.44 0.17 91 1014.1
20220704193121 58 101 3.0 10.0 0.00 0.44 0.17 93 1014.1
20220704192121 57 109 4.0 13.0 0.00 0.44 0.17 93 1014.1
20220704191121 57 115 3.0 8.0 0.00 0.45 0.17 93 1014.1
20220704190121 57 107 3.0 8.0 0.00 0.45 0.17 93 1014.0
20220704185122 57 114 3.0 8.0 0.01 0.45 0.17 93 1013.9
20220704184121 56 72 1.0 7.0 0.01 0.46 0.17 93 1014.0
20220704183122 56 81 2.0 8.0 0.01 0.46 0.17 93 1014.0
20220704182122 55 95 3.0 10.0 0.01 0.47 0.17 93 1014.0
20220704181121 55 107 3.0 8.0 0.02 0.47 0.17 93 1014.0
20220704180121 55 116 3.0 10.0 0.02 0.48 0.17 93 1013.9
20220704175122 55 94 2.0 8.0 0.01 0.47 0.16 93 1014.0
20220704174123 55 92 3.0 8.0 0.01 0.47 0.16 93 1014.0
20220704173121 55 89 3.0 11.0 0.01 0.48 0.16 93 1014.0
20220704172124 55 82 3.0 8.0 0.01 0.48 0.16 93 1014.0
20220704171121 55 81 3.0 8.0 0.00 0.47 0.15 93 1014.0
20220704170121 55 97 3.0 10.0 0.00 0.47 0.15 93 1013.9
20220704165122 55 117 4.0 11.0 0.00 0.47 0.15 93 1013.9
20220704164122 55 120 4.0 12.0 0.00 0.47 0.15 93 1013.8
20220704163121 55 102 3.0 8.0 0.00 0.47 0.15 93 1013.8
20220704162121 55 121 4.0 9.0 0.00 0.47 0.15 93 1013.8
20220704161122 55 115 3.0 9.0 0.00 0.48 0.15 93 1013.8
20220704160122 55 106 3.0 8.0 0.00 0.48 0.15 93 1013.6
20220704155122 55 74 1.0 5.0 0.00 0.49 0.15 93 1013.7
20220704154121 55 62 2.0 6.0 0.00 0.49 0.15 93 1013.6
20220704153121 55 78 2.0 6.0 0.00 0.51 0.15 93 1013.6
20220704152122 55 63 1.0 4.0 0.00 0.52 0.15 93 1013.6
20220704151122 55 76 2.0 8.0 0.01 0.55 0.15 93 1013.5
20220704150121 55 98 1.0 4.0 0.01 0.56 0.15 93 1013.4
20220704145122 54 46 1.0 3.0 0.01 0.59 0.15 93 1013.5
20220704144122 54 82 1.0 5.0 0.01 0.60 0.15 93 1013.2
20220704143122 54 50 0.0 3.0 0.01 0.61 0.15 93 1013.2
20220704142121 54 69 1.0 4.0 0.01 0.61 0.15 93 1013.2
20220704141122 54 47 0.0 3.0 0.00 0.60 0.14 93 1013.4
20220704140122 54 63 1.0 3.0 0.00 0.60 0.14 93 1013.2
20220704135123 54 53 1.0 6.0 0.00 0.60 0.14 93 1013.2
20220704134122 54 59 2.0 9.0 0.00 0.60 0.14 93 1013.2
20220704133124 54 47 1.0 4.0 0.00 0.60 0.14 93 1013.2
20220704132122 54 58 0.0 3.0 0.00 0.60 0.14 93 1013.2
20220704131124 54 46 1.0 3.0 0.00 0.60 0.14 93 1013.1
20220704130122 54 66 1.0 3.0 0.00 0.60 0.14 93 1013.1
20220704125122 54 53 1.0 4.0 0.00 0.60 0.14 93 1013.1
20220704124124 54 59 1.0 3.0 0.00 0.60 0.14 93 1013.1
20220704123122 54 32 1.0 6.0 0.00 0.60 0.14 93 1013.1
20220704122124 54 51 1.0 3.0 0.00 0.60 0.14 93 1013.0
20220704121122 54 52 1.0 3.0 0.00 0.60 0.14 93 1013.0
20220704120124 54 65 0.0 3.0 0.00 0.60 0.14 93 1012.9
20220704115122 54 44 1.0 8.0 0.00 0.60 0.14 93 1013.0
20220704114122 54 51 1.0 3.0 0.00 0.60 0.14 93 1012.9
20220704113123 54 64 1.0 3.0 0.00 0.60 0.14 93 1012.9
20220704112122 54 45 0.0 0.0 0.00 0.60 0.14 93 1012.9
20220704111123 54 75 0.0 3.0 0.00 0.60 0.14 93 1012.9
20220704110122 54 45 0.0 0.0 0.01 0.60 0.14 93 1012.8
20220704105124 54 67 1.0 5.0 0.01 0.60 0.14 93 1012.9
20220704104122 54 63 0.0 3.0 0.02 0.60 0.14 93 1012.8
20220704103122 54 66 0.0 2.0 0.04 0.60 0.14 93 1012.8
20220704102122 54 69 1.0 8.0 0.05 0.60 0.14 93 1012.8
20220704101122 54 95 2.0 8.0 0.07 0.60 0.14 93 1012.7
20220704100121 54 77 2.0 6.0 0.07 0.59 0.13 93 1012.8
20220704095120 54 75 2.0 9.0 0.07 0.59 0.13 93 1012.8
20220704094120 54 97 2.0 7.0 0.07 0.58 0.12 93 1012.8
20220704093120 54 85 1.0 6.0 0.06 0.56 0.10 93 1012.8
20220704092122 54 80 2.0 8.0 0.05 0.55 0.09 93 1012.8
20220704091121 54 77 2.0 8.0 0.04 0.53 0.07 93 1012.7
20220704090120 54 80 3.0 8.0 0.04 0.52 0.06 93 1012.9
20220704085120 54 95 4.0 10.0 0.04 0.52 0.06 93 1012.9
20220704084120 54 100 4.0 9.0 0.04 0.51 0.05 93 1012.9
20220704083120 54 90 3.0 11.0 0.03 0.50 0.04 93 1012.9
20220704082120 54 102 3.0 10.0 0.03 0.50 0.04 93 1012.9
20220704081122 54 93 3.0 8.0 0.03 0.49 0.03 93 1012.8
20220704080120 54 95 4.0 9.0 0.02 0.48 0.02 93 1012.8
20220704075120 54 90 4.0 12.0 0.03 0.48 0.02 93 1012.8
20220704074121 54 102 4.0 12.0 0.03 0.47 0.01 93 1012.8
20220704073120 54 93 5.0 15.0 0.04 0.47 0.01 93 1012.8
20220704072122 54 103 4.0 12.0 0.04 0.47 0.01 93 1012.9
20220704071121 54 103 4.0 10.0 0.04 0.46 0.00 93 1012.9
20220704070120 54 89 3.0 13.0 0.04 0.46 0.00 93 1013.0
20220704065120 54 84 3.0 9.0 0.04 0.45 0.45 93 1013.0
20220704064120 54 100 3.0 10.0 0.04 0.44 0.44 93 1012.9
20220704063124 54 104 2.0 9.0 0.04 0.43 0.43 93 1012.9
20220704062124 54 90 4.0 11.0 0.05 0.43 0.43 93 1012.9
20220704061121 54 82 3.0 10.0 0.05 0.42 0.42 93 1012.8
20220704060120 54 78 2.0 8.0 0.06 0.42 0.42 93 1012.8
20220704055124 54 68 2.0 7.0 0.06 0.41 0.41 93 1013.0
20220704054121 54 87 3.0 10.0 0.06 0.40 0.40 93 1012.9
20220704053120 54 66 3.0 9.0 0.06 0.39 0.39 93 1012.9
20220704052121 54 73 3.0 12.0 0.06 0.38 0.38 93 1012.9
20220704051121 54 95 4.0 10.0 0.05 0.37 0.37 93 1012.9
20220704050120 54 105 4.0 12.0 0.05 0.36 0.36 93 1012.8
20220704045121 54 106 4.0 11.0 0.04 0.35 0.35 93 1012.9
20220704044120 54 96 3.0 8.0 0.04 0.34 0.34 93 1012.8
20220704043121 54 105 4.0 11.0 0.03 0.33 0.33 93 1012.8
20220704042121 54 86 4.0 11.0 0.02 0.32 0.32 93 1012.7
20220704041121 54 97 2.0 8.0 0.02 0.32 0.32 93 1012.8
20220704040121 54 86 2.0 8.0 0.01 0.31 0.31 93 1012.8
20220704035124 54 86 3.0 8.0 0.01 0.31 0.31 93 1012.8
20220704034121 54 91 3.0 8.0 0.00 0.30 0.30 93 1012.8
20220704033121 54 80 4.0 9.0 0.00 0.30 0.30 93 1012.8
20220704032120 54 101 3.0 12.0 0.00 0.30 0.30 93 1012.7
20220704031121 54 96 3.0 10.0 0.01 0.30 0.30 93 1012.8
20220704030121 54 79 3.0 8.0 0.01 0.30 0.30 93 1012.8
20220704025121 54 85 3.0 8.0 0.01 0.30 0.30 93 1012.7
20220704024121 54 90 4.0 12.0 0.02 0.30 0.30 93 1012.6
20220704023121 55 108 3.0 9.0 0.02 0.30 0.30 93 1012.6
20220704022121 55 100 3.0 8.0 0.02 0.30 0.30 93 1012.6
20220704021121 55 109 3.0 12.0 0.02 0.29 0.29 93 1012.5
20220704020121 55 92 3.0 11.0 0.03 0.29 0.29 93 1012.5
20220704015121 55 103 3.0 8.0 0.05 0.29 0.29 93 1012.5
20220704014121 55 85 2.0 8.0 0.05 0.28 0.28 93 1012.5
20220704013124 55 110 2.0 10.0 0.05 0.28 0.28 93 1012.5
20220704012121 55 93 4.0 13.0 0.05 0.28 0.28 93 1012.5
20220704011121 55 124 3.0 9.0 0.04 0.27 0.27 93 1012.4
20220704010121 55 97 3.0 8.0 0.04 0.26 0.26 93 1012.4
20220704005121 56 122 3.0 9.0 0.02 0.24 0.24 93 1012.2
20220704004121 56 102 2.0 5.0 0.01 0.23 0.23 93 1012.2
20220704003121 56 111 3.0 8.0 0.01 0.23 0.23 93 1012.2
20220704002121 56 96 2.0 6.0 0.01 0.23 0.23 93 1012.2
20220704001121 56 71 1.0 5.0 0.01 0.23 0.23 93 1012.2
20220704000122 56 48 1.0 4.0 0.01 0.22 0.22 93 1012.2
20220703235121 56 118 2.0 8.0 0.01 0.22 0.22 93 1012.2
20220703234121 56 116 2.0 5.0 0.02 0.22 0.22 93 1012.2
20220703233121 56 138 2.0 7.0 0.02 0.22 0.22 93 1012.2
20220703232121 57 92 1.0 7.0 0.02 0.22 0.22 92 1012.4
20220703231123 57 90 2.0 8.0 0.02 0.22 0.22 92 1012.4
20220703230121 57 87 3.0 10.0 0.01 0.21 0.21 92 1012.4
20220703225121 57 83 2.0 5.0 0.01 0.21 0.21 91 1012.5
20220703224121 57 83 2.0 8.0 0.00 0.20 0.20 91 1012.6
20220703223121 57 81 0.0 3.0 0.00 0.20 0.20 90 1012.6
20220703222121 57 86 2.0 9.0 0.00 0.20 0.20 90 1012.4